PBO Station Position Time Series. Reference Frame : NAM14
Format Version,1.1.0
4-character ID,PBL1
Station name,Point_Blunt_1
Begin Date, 1996-01-11
End Date, 2004-03-08
Release Date, 2021-02-19
Reference position, 37.8530527488 North Latitude, -122.4189464939 East Longitude, -8.05775 meters elevation,
Date, North (mm), East (mm), Vertical (mm), North Std. Deviation (mm), East Std. Deviation (mm),              Vertical Std. Deviation (mm), Quality,
1996-01-11,0.00, 0.00, -4.99, 6.54, 4.93, 21.22, repro,
1996-01-12,3.04, 3.72, 0.00, 3.18, 2.73, 11.29, repro,
1996-01-13,2.76, 3.15, 1.04, 3.20, 2.74, 11.26, repro,
1996-01-14,-0.74, 3.81, -2.18, 3.25, 2.77, 11.53, repro,
1996-01-15,0.44, 4.20, -5.52, 3.23, 2.73, 11.51, repro,
1996-01-16,-4.07, 3.33, -10.97, 3.49, 3.14, 12.13, repro,
1996-01-17,-3.62, 4.48, 12.55, 5.92, 4.61, 20.15, repro,
1996-01-18,4.62, 4.36, 8.61, 3.27, 2.79, 11.78, repro,
1996-01-19,5.73, 0.75, 12.83, 3.44, 3.02, 12.81, repro,
1996-01-20,0.36, 5.09, -2.62, 3.38, 2.95, 12.12, repro,
1996-01-21,2.83, 3.22, 7.05, 3.26, 2.66, 11.62, repro,
1996-01-22,0.79, 6.37, 0.73, 3.12, 2.61, 10.98, repro,
1996-01-23,0.54, 4.36, -10.10, 3.39, 2.93, 12.00, repro,
1996-01-24,-1.04, 5.79, -4.86, 3.32, 2.82, 11.60, repro,
1996-01-25,2.67, 6.73, -2.22, 3.89, 3.77, 16.27, repro,
1996-01-26,0.42, 5.50, 2.42, 3.16, 2.88, 11.92, repro,
1996-01-27,0.39, 3.60, -1.19, 3.29, 2.96, 12.22, repro,
1996-01-28,0.59, 1.98, -11.48, 3.33, 2.95, 12.16, repro,
1996-01-29,1.36, 3.25, -6.00, 2.60, 2.31, 9.46, repro,
1996-01-30,-0.86, 3.01, 0.57, 3.97, 3.63, 16.26, repro,
1996-01-31,1.67, 2.58, -8.03, 2.51, 2.19, 9.14, repro,
1996-02-01,2.24, 3.33, -3.29, 2.54, 2.18, 9.34, repro,
1996-02-02,1.69, 6.15, -9.70, 2.67, 2.18, 9.68, repro,
1996-02-03,0.35, 6.04, -8.25, 2.57, 2.24, 9.46, repro,
1996-02-04,-1.47, 5.22, -13.92, 2.71, 2.32, 9.81, repro,
1996-02-05,0.34, 3.68, 4.10, 2.64, 2.20, 9.32, repro,
1996-02-06,-1.04, 5.34, -12.16, 2.98, 2.54, 10.51, repro,
1996-02-07,0.89, 5.03, -17.36, 2.52, 2.11, 8.93, repro,
1996-02-08,1.48, 4.67, -9.71, 2.44, 2.06, 8.81, repro,
1996-02-09,4.17, 3.22, -6.07, 3.77, 3.35, 15.16, repro,
1996-02-10,0.91, 5.43, -13.39, 2.43, 2.02, 8.78, repro,
1996-02-11,3.01, 5.64, -6.18, 2.40, 2.01, 8.46, repro,
1996-02-12,2.36, 4.07, -15.33, 2.60, 2.24, 9.11, repro,
1996-02-13,2.69, 4.67, -14.23, 3.55, 3.09, 13.17, repro,
1996-02-14,0.80, 4.67, -12.61, 2.44, 2.03, 8.57, repro,
1996-02-15,2.53, 5.40, -8.62, 2.73, 2.29, 9.75, repro,
1996-02-20,13.60, 14.64, 10.68, 11.39, 6.36, 32.93, repro,
1996-02-21,-0.14, 3.53, -18.06, 3.57, 3.26, 13.71, repro,
1996-02-22,0.33, 4.41, -8.80, 2.72, 2.28, 9.51, repro,
1996-02-23,-0.37, 5.25, -10.32, 2.68, 2.21, 9.40, repro,
1996-02-24,0.42, 4.93, -10.55, 2.61, 2.20, 9.35, repro,
1996-02-25,2.14, 4.08, -5.76, 2.72, 2.25, 9.36, repro,
1996-02-26,3.08, 5.83, -6.39, 2.72, 2.37, 9.73, repro,
1996-02-27,0.03, 5.02, -10.60, 2.95, 2.72, 10.94, repro,
1996-02-28,-0.37, 7.03, -9.69, 2.78, 2.41, 9.96, repro,
1996-02-29,3.00, 3.87, -0.27, 2.60, 2.19, 9.32, repro,
1996-03-01,2.21, 5.10, -0.84, 2.59, 2.18, 9.29, repro,
1996-03-02,3.74, 6.46, 5.26, 2.85, 2.47, 10.33, repro,
1996-03-03,2.52, 5.21, -0.67, 2.69, 2.22, 9.43, repro,
1996-03-04,3.96, 5.17, -3.09, 3.07, 2.56, 11.16, repro,
1996-03-05,-2.58, 4.35, -0.60, 2.66, 2.17, 9.18, repro,
1996-03-06,2.01, 3.61, -10.05, 2.67, 2.16, 9.52, repro,
1996-03-07,2.30, 6.39, -2.02, 2.52, 2.07, 8.83, repro,
1996-03-08,1.35, 3.40, -4.52, 2.51, 2.03, 8.69, repro,
1996-03-09,0.53, 7.56, -2.91, 2.99, 2.58, 11.59, repro,
1996-03-10,0.97, 10.09, -5.46, 3.35, 2.80, 12.64, repro,
1996-03-11,-1.36, 3.51, -6.72, 2.52, 2.05, 8.93, repro,
1996-03-12,1.38, 4.01, -15.30, 2.54, 2.05, 9.26, repro,
1996-03-13,1.65, 5.97, -8.86, 2.71, 2.14, 10.10, repro,
1996-03-14,3.89, 1.39, -6.28, 2.60, 2.18, 9.37, repro,
1996-03-15,2.92, 6.02, -5.01, 2.98, 2.61, 11.54, repro,
1996-03-16,2.66, 4.42, 0.79, 2.94, 2.53, 11.14, repro,
1996-03-17,3.23, 3.92, -8.08, 2.83, 2.41, 10.16, repro,
1996-03-18,2.01, 5.31, -10.80, 2.87, 2.44, 10.34, repro,
1996-03-19,0.61, 6.57, -4.66, 3.08, 2.60, 11.53, repro,
1996-03-20,1.56, 7.04, -4.01, 3.09, 2.49, 11.31, repro,
1996-03-21,3.08, 5.60, -9.68, 3.01, 2.50, 11.24, repro,
1996-03-22,3.89, 3.05, -8.37, 3.22, 2.67, 11.90, repro,
1996-03-23,-0.23, 5.94, -12.25, 4.14, 3.97, 15.17, repro,
1996-03-24,4.73, 1.17, -9.41, 3.06, 2.71, 11.28, repro,
1996-03-25,2.12, 5.12, -1.95, 3.07, 2.54, 11.10, repro,
1996-03-26,3.08, 4.79, -7.81, 2.93, 2.50, 10.84, repro,
1996-03-27,3.11, 3.51, -9.65, 2.36, 1.92, 8.53, repro,
1996-03-28,3.28, 3.78, -15.41, 2.60, 2.18, 9.30, repro,
1996-03-29,2.00, 3.67, -9.90, 2.65, 2.10, 9.59, repro,
1996-03-30,2.91, 5.25, -2.39, 2.39, 1.96, 8.77, repro,
1996-03-31,1.66, 5.99, -3.03, 2.40, 1.96, 8.75, repro,
1996-04-01,2.91, 6.54, 6.68, 2.39, 2.00, 8.83, repro,
1996-04-02,1.35, 6.77, -0.17, 2.62, 2.16, 9.75, repro,
1996-04-03,-0.69, 6.84, -3.63, 2.34, 1.92, 8.49, repro,
1996-04-04,1.10, 7.00, -6.68, 2.36, 1.94, 8.63, repro,
1996-04-05,0.73, 6.64, -6.16, 2.43, 2.03, 8.95, repro,
1996-04-06,2.25, 7.26, -10.30, 2.36, 1.96, 8.66, repro,
1996-04-07,1.85, 5.92, -14.84, 2.46, 2.33, 9.15, repro,
1996-04-08,0.74, 5.69, -8.93, 2.35, 1.91, 8.49, repro,
1996-04-09,1.59, 6.83, -9.63, 2.34, 1.92, 8.46, repro,
1996-04-10,2.33, 5.54, 3.05, 2.37, 1.94, 8.46, repro,
1996-04-11,1.31, 4.66, -7.38, 2.33, 1.92, 8.38, repro,
1996-04-12,2.48, 5.78, -7.54, 2.53, 2.04, 9.05, repro,
1996-04-13,2.06, 6.55, -7.07, 2.37, 1.95, 8.47, repro,
1996-04-14,3.15, 5.44, -8.06, 2.39, 1.98, 8.49, repro,
1996-04-15,2.10, 6.39, -8.45, 2.39, 2.01, 8.52, repro,
1996-04-16,2.01, 6.05, -11.12, 2.51, 2.06, 8.91, repro,
1996-04-17,0.70, 8.02, -4.17, 2.47, 2.02, 8.71, repro,
1996-04-18,2.96, 7.42, -6.22, 2.61, 2.10, 9.10, repro,
1996-04-19,0.98, 7.08, -7.94, 2.46, 2.01, 8.61, repro,
1996-04-20,3.49, 7.76, -10.18, 2.57, 2.10, 9.02, repro,
1996-04-21,2.34, 7.66, -0.45, 3.16, 2.53, 11.20, repro,
1996-04-22,2.94, 7.02, -8.63, 2.49, 2.03, 8.73, repro,
1996-04-23,1.55, 7.27, -0.82, 2.51, 2.01, 8.97, repro,
1996-04-24,3.27, 10.63, -2.47, 2.40, 1.94, 8.54, repro,
1996-04-25,3.48, 7.74, -5.88, 2.44, 1.95, 8.60, repro,
1996-04-26,3.10, 7.02, -3.52, 2.54, 2.06, 9.01, repro,
1996-04-27,1.92, 6.79, -0.19, 2.42, 1.95, 8.47, repro,
1996-04-28,1.41, 6.53, -2.23, 2.42, 1.94, 8.47, repro,
1996-04-29,3.37, 5.54, -5.79, 2.65, 2.15, 9.37, repro,
1996-04-30,2.40, 5.81, -9.10, 2.48, 1.99, 8.73, repro,
1996-05-01,0.81, 7.35, -12.02, 2.46, 2.01, 8.67, repro,
1996-05-02,1.55, 6.24, -9.36, 2.42, 1.99, 8.93, repro,
1996-05-03,0.85, 4.26, -7.85, 2.36, 1.91, 8.48, repro,
1996-05-04,3.12, 4.44, -11.49, 3.00, 2.40, 10.80, repro,
1996-05-05,1.76, 5.33, -14.06, 2.38, 1.98, 8.62, repro,
1996-05-06,1.50, 5.57, -14.23, 2.37, 1.96, 8.52, repro,
1996-05-07,2.14, 5.77, -6.99, 2.43, 1.96, 8.77, repro,
1996-05-08,1.29, 6.64, -13.32, 2.38, 1.94, 8.47, repro,
1996-05-09,1.54, 4.74, -5.74, 2.37, 1.93, 8.46, repro,
1996-05-10,2.64, 7.59, -12.27, 2.51, 2.17, 9.21, repro,
1996-05-11,2.46, 5.58, -15.02, 2.73, 2.28, 10.11, repro,
1996-05-12,2.20, 6.26, -13.02, 2.53, 2.09, 9.11, repro,
1996-05-13,0.57, 6.21, -6.00, 2.51, 2.14, 9.09, repro,
1996-05-14,0.87, 5.38, -6.72, 2.75, 2.20, 10.26, repro,
1996-05-15,-16.62, -95.49, 81.20, 242.25, 385.32, 531.84, repro,
1996-05-16,-2.27, 6.91, -6.36, 3.50, 3.00, 13.06, repro,
1996-05-17,4.46, 4.76, -6.86, 2.69, 2.29, 9.95, repro,
1996-05-18,16.88, 6.58, 13.01, 6.52, 5.26, 22.90, repro,
1996-05-20,0.98, 4.13, -16.27, 3.33, 2.89, 12.86, repro,
1996-05-21,1.47, 8.13, -1.53, 2.45, 2.09, 8.83, repro,
1996-05-22,2.04, 6.51, -3.16, 2.40, 1.95, 8.61, repro,
1996-05-23,4.08, 4.76, -11.19, 2.44, 1.93, 8.81, repro,
1996-05-24,1.64, 6.57, -5.09, 2.47, 2.00, 8.85, repro,
1996-05-25,3.52, 6.46, -20.14, 7.32, 6.46, 28.74, repro,
1996-05-28,1.52, 5.85, -1.85, 3.34, 2.76, 12.36, repro,
1996-05-29,2.32, 7.38, -12.42, 2.49, 2.06, 9.08, repro,
1996-05-30,1.56, 6.47, -10.03, 2.32, 1.89, 8.48, repro,
1996-05-31,1.66, 5.27, -9.19, 2.34, 1.91, 8.52, repro,
1996-06-01,2.75, 7.45, -14.50, 2.40, 2.16, 9.12, repro,
1996-06-02,2.14, 5.50, -17.23, 2.37, 2.20, 8.82, repro,
1996-06-03,1.15, 5.89, -9.43, 2.50, 2.22, 9.21, repro,
1996-06-04,2.13, 6.53, -12.26, 2.45, 2.21, 8.85, repro,
1996-06-05,1.79, 5.80, -5.54, 2.41, 2.08, 9.04, repro,
1996-06-06,2.34, 6.44, -10.24, 2.37, 2.01, 8.65, repro,
1996-06-07,1.47, 5.55, -0.79, 2.47, 1.94, 9.02, repro,
1996-06-08,2.78, 6.49, -5.36, 2.36, 1.93, 8.81, repro,
1996-06-09,1.47, 5.80, -0.15, 2.32, 1.91, 8.54, repro,
1996-06-10,1.71, 7.83, -5.88, 2.38, 1.98, 8.88, repro,
1996-06-11,2.13, 5.63, -4.08, 2.40, 2.00, 8.88, repro,
1996-06-12,1.96, 7.17, -2.06, 2.36, 1.93, 8.72, repro,
1996-06-13,3.25, 5.99, -4.21, 2.36, 1.92, 8.56, repro,
1996-06-14,3.27, 5.93, -16.43, 2.33, 1.90, 8.45, repro,
1996-06-15,1.96, 4.99, -14.48, 2.32, 1.89, 8.45, repro,
1996-06-16,2.44, 5.05, -16.49, 2.34, 1.89, 8.49, repro,
1996-06-17,1.59, 5.43, -17.65, 2.45, 2.00, 8.83, repro,
1996-06-18,1.37, 8.56, -7.44, 3.43, 3.00, 13.64, repro,
1996-06-19,1.18, 5.22, -3.88, 2.53, 2.07, 9.13, repro,
1996-06-20,-0.45, 6.68, -16.23, 2.74, 2.19, 10.00, repro,
1996-06-21,0.13, 6.57, -1.75, 2.38, 1.97, 8.72, repro,
1996-06-22,2.44, 5.51, -7.07, 2.41, 1.98, 8.87, repro,
1996-06-23,0.90, 4.84, -4.27, 2.42, 1.99, 8.92, repro,
1996-06-24,2.43, 5.33, -16.98, 2.59, 2.11, 9.63, repro,
1996-06-25,2.91, 5.41, -0.80, 2.38, 1.98, 8.76, repro,
1996-06-26,1.70, 4.48, -4.21, 2.35, 1.95, 8.65, repro,
1996-06-27,2.24, 7.01, -13.39, 2.71, 2.26, 10.21, repro,
1996-06-28,1.40, 4.37, -9.16, 2.65, 2.14, 9.71, repro,
1996-07-01,3.16, 5.08, -16.90, 3.30, 2.83, 12.40, repro,
1996-07-02,1.58, 7.22, -9.51, 2.50, 2.21, 9.21, repro,
1996-07-03,2.09, 6.57, -0.95, 2.54, 2.05, 9.35, repro,
1996-07-04,4.57, 5.64, -9.77, 2.44, 2.21, 9.16, repro,
1996-07-05,3.11, 6.14, -8.71, 2.46, 2.05, 8.94, repro,
1996-07-06,2.42, 6.03, -5.29, 2.42, 1.98, 8.78, repro,
1996-07-07,1.85, 6.26, -3.78, 2.44, 1.97, 8.80, repro,
1996-07-08,3.23, 8.73, -4.72, 2.61, 2.37, 9.39, repro,
1996-07-09,4.25, 5.07, -5.66, 2.56, 2.26, 9.39, repro,
1996-07-10,4.46, 7.16, -2.34, 2.53, 2.19, 9.26, repro,
1996-07-11,3.44, 5.95, 6.20, 2.41, 1.97, 8.67, repro,
1996-07-12,1.43, 3.93, -11.72, 2.44, 1.96, 8.79, repro,
1996-07-13,1.75, 2.52, -6.06, 2.57, 2.31, 9.17, repro,
1996-07-14,0.29, 3.97, -3.92, 2.49, 2.23, 9.09, repro,
1996-07-15,1.39, 5.83, 2.11, 2.59, 2.04, 9.28, repro,
1996-07-16,1.16, 5.96, -1.99, 2.54, 1.96, 9.00, repro,
1996-07-17,1.31, 6.18, -2.35, 2.52, 2.03, 9.06, repro,
1996-07-18,2.94, 5.00, -7.04, 2.41, 1.93, 8.65, repro,
1996-07-19,0.91, 5.42, -6.61, 2.39, 1.91, 8.63, repro,
1996-07-20,0.55, 4.99, 1.03, 2.40, 1.94, 8.69, repro,
1996-07-21,1.76, 6.23, -3.14, 2.38, 1.92, 8.71, repro,
1996-07-22,4.08, 4.57, -18.96, 2.46, 2.11, 8.95, repro,
1996-07-23,0.49, 6.01, -8.29, 2.41, 2.15, 8.98, repro,
1996-07-24,2.48, 5.61, -3.73, 2.50, 2.03, 9.13, repro,
1996-07-25,-0.39, 3.26, -7.63, 2.87, 2.44, 10.44, repro,
1996-08-01,0.88, 8.56, 0.91, 4.73, 4.71, 19.56, repro,
1996-08-02,-27.66, -96.78, -89.51, 5.16, 5.06, 23.63, repro,
1996-08-03,1.35, 4.94, 1.61, 3.93, 3.57, 14.58, repro,
1996-08-04,-0.86, 3.96, 1.47, 2.75, 2.37, 10.25, repro,
1996-08-05,-0.12, 5.74, -5.54, 2.97, 2.53, 11.72, repro,
1996-08-06,1.60, 4.72, -6.18, 2.48, 2.04, 9.37, repro,
1996-08-07,0.38, 4.92, -1.52, 2.42, 2.05, 9.09, repro,
1996-08-08,0.22, 7.05, -8.81, 2.50, 2.38, 9.44, repro,
1996-08-09,1.93, 4.68, -9.11, 2.41, 2.15, 9.00, repro,
1996-08-10,1.17, 3.03, -2.79, 2.40, 1.97, 8.88, repro,
1996-08-11,1.11, 3.46, -1.16, 2.33, 1.91, 8.56, repro,
1996-08-12,2.84, 4.63, -4.38, 2.41, 1.93, 8.94, repro,
1996-08-13,2.05, 4.75, -1.68, 2.41, 1.93, 8.88, repro,
1996-08-15,2.80, 1.98, -4.05, 2.53, 2.22, 9.27, repro,
1996-08-16,2.25, 3.83, 3.24, 2.49, 1.94, 8.92, repro,
1996-08-17,1.30, 3.40, 1.02, 2.49, 2.02, 9.05, repro,
1996-08-18,4.37, 3.07, -5.17, 2.49, 1.91, 9.01, repro,
1996-08-19,2.89, 2.76, -7.70, 2.60, 1.95, 9.51, repro,
1996-08-20,-0.37, 1.68, 0.06, 2.59, 2.08, 9.63, repro,
1996-08-21,1.05, 3.52, -6.67, 2.65, 2.18, 10.13, repro,
1996-08-22,0.76, 4.07, -5.84, 2.39, 2.23, 9.07, repro,
1996-08-23,1.97, 0.64, -5.84, 2.81, 2.38, 10.39, repro,
1996-08-24,0.99, 1.21, -7.31, 2.76, 2.24, 10.18, repro,
1996-08-25,-0.01, 3.59, -2.88, 2.44, 2.02, 9.09, repro,
1996-08-26,-0.08, 2.30, -5.80, 2.52, 2.14, 9.34, repro,
1996-08-27,1.08, 3.56, -5.30, 2.50, 2.04, 9.40, repro,
1996-08-28,-0.91, 6.26, 0.72, 4.23, 3.24, 15.47, repro,
1996-08-29,1.57, 2.63, -5.93, 2.53, 2.06, 9.71, repro,
1996-08-30,-0.63, 3.16, -5.35, 2.35, 1.96, 8.79, repro,
1996-08-31,-0.62, 3.32, -4.80, 2.38, 1.93, 8.68, repro,
1996-09-01,1.30, 1.68, -10.21, 2.50, 1.99, 9.20, repro,
1996-09-02,0.42, 2.04, -7.57, 2.43, 1.98, 9.20, repro,
1996-09-03,1.07, 2.70, -5.93, 2.52, 1.98, 9.43, repro,
1996-09-04,2.42, 0.72, -5.12, 2.54, 2.01, 9.66, repro,
1996-09-05,-0.78, 1.24, -9.30, 2.35, 1.98, 8.79, repro,
1996-09-06,0.48, 4.29, -7.97, 2.50, 2.15, 9.58, repro,
1996-09-07,-0.21, 1.36, -11.42, 2.57, 2.05, 9.99, repro,
1996-09-08,1.54, 0.97, -4.30, 2.44, 2.27, 9.07, repro,
1996-09-09,1.65, 1.63, -14.18, 2.66, 2.40, 9.88, repro,
1996-09-10,2.04, 3.08, -16.31, 2.56, 2.28, 9.88, repro,
1996-09-11,1.06, 2.45, -5.68, 2.50, 2.17, 9.94, repro,
1996-09-12,0.92, 1.76, -5.13, 2.45, 1.99, 9.18, repro,
1996-09-13,-0.93, 1.84, 3.78, 2.35, 1.92, 8.68, repro,
1996-09-14,0.44, 0.90, 2.62, 2.35, 1.93, 8.70, repro,
1996-09-15,-1.93, 3.22, -5.24, 2.58, 2.31, 9.63, repro,
1996-09-16,-1.92, 2.66, 1.46, 2.43, 2.08, 8.99, repro,
1996-09-17,0.43, 4.46, -4.99, 2.44, 1.95, 8.78, repro,
1996-09-18,-0.71, 2.17, -4.47, 2.37, 1.96, 8.75, repro,
1996-09-19,-0.27, 2.96, -7.43, 2.71, 2.30, 10.47, repro,
1996-09-20,-0.63, 2.58, -4.25, 2.48, 2.04, 9.31, repro,
1996-09-21,-0.73, 1.51, -1.99, 2.50, 2.06, 9.49, repro,
1996-09-22,-1.43, 4.92, -4.77, 2.33, 1.91, 8.42, repro,
1996-09-23,-0.08, 2.78, -8.85, 2.40, 2.04, 9.21, repro,
1996-09-24,-0.10, 4.10, -8.71, 2.46, 1.96, 9.04, repro,
1996-09-25,0.81, 2.45, -9.94, 2.43, 2.09, 8.78, repro,
1996-09-26,-0.93, 3.30, -1.91, 2.55, 2.18, 10.20, repro,
1996-09-27,-1.09, 1.99, -6.65, 2.33, 2.02, 8.76, repro,
1996-09-28,28.95, 243.58, -55.30, 2.96, 2.36, 10.54, repro,
1996-09-29,0.90, 2.86, -8.65, 2.54, 2.09, 8.87, repro,
1996-09-30,0.04, 1.79, -9.57, 2.40, 2.08, 8.78, repro,
1996-10-01,-36.04, -135.71, 77.01, 10.52, 8.22, 36.24, repro,
1996-10-02,-0.39, 2.98, -8.21, 2.22, 1.83, 8.06, repro,
1996-10-03,-0.83, 2.58, -9.93, 2.35, 2.03, 8.70, repro,
1996-10-04,-1.60, 2.06, -8.46, 2.28, 2.05, 8.47, repro,
1996-10-05,-0.06, 2.32, -3.79, 2.35, 2.01, 8.75, repro,
1996-10-07,-1.28, 3.69, -6.09, 3.10, 2.68, 11.68, repro,
1996-10-08,-1.99, 2.48, -6.09, 3.13, 2.76, 12.53, repro,
1996-10-09,-1.09, 4.10, -5.13, 2.35, 1.91, 8.62, repro,
1996-10-10,-1.84, 1.75, -7.24, 2.29, 1.86, 8.40, repro,
1996-10-11,-1.04, 3.96, -4.62, 2.22, 1.83, 8.14, repro,
1996-10-12,-1.93, 0.53, -7.53, 2.21, 1.82, 8.04, repro,
1996-10-13,-0.96, 3.72, -8.80, 2.32, 2.07, 8.58, repro,
1996-10-14,-1.62, 3.06, -4.76, 2.25, 1.90, 8.47, repro,
1996-10-15,-2.26, 4.70, 10.48, 2.31, 1.92, 8.53, repro,
1996-10-16,-0.70, 2.17, -0.29, 2.57, 2.10, 9.21, repro,
1996-10-17,-1.31, 3.00, -6.62, 2.24, 1.85, 8.26, repro,
1996-10-18,0.06, 1.33, -1.37, 2.36, 1.93, 8.49, repro,
1996-10-19,-2.15, 2.47, -6.68, 2.86, 2.27, 10.48, repro,
1996-10-20,-1.58, 2.13, -4.83, 2.32, 1.87, 8.44, repro,
1996-10-21,-2.21, 2.79, -4.24, 2.21, 1.81, 8.06, repro,
1996-10-22,-1.11, 2.23, -4.72, 2.35, 1.90, 8.55, repro,
1996-10-23,-2.08, 1.85, -4.52, 2.33, 2.05, 8.73, repro,
1996-10-24,1.01, -0.43, -1.17, 2.34, 1.95, 8.36, repro,
1996-10-25,-0.16, 5.46, 6.53, 2.27, 1.89, 8.29, repro,
1996-10-26,-4.35, 3.78, -5.44, 2.30, 1.87, 8.40, repro,
1996-10-27,-1.61, 3.03, -8.46, 2.25, 1.82, 8.26, repro,
1996-10-28,-2.25, 1.48, -5.81, 2.28, 1.88, 8.32, repro,
1996-10-29,-0.50, 2.56, 0.27, 2.31, 2.04, 8.49, repro,
1996-10-30,-1.69, -0.23, -8.57, 2.29, 1.82, 8.29, repro,
1996-10-31,-0.65, 0.00, -2.40, 2.32, 1.83, 8.43, repro,
1996-11-01,-1.52, 2.50, -5.25, 2.29, 1.85, 8.29, repro,
1996-11-02,-0.97, 0.91, -8.32, 2.53, 1.98, 9.02, repro,
1996-11-03,-0.81, 2.59, -11.23, 2.29, 1.81, 8.25, repro,
1996-11-04,-0.92, 0.31, 1.12, 2.59, 1.99, 9.13, repro,
1996-11-05,-2.39, 0.13, -7.81, 2.33, 1.84, 8.35, repro,
1996-11-06,-1.22, 0.93, -7.70, 2.49, 1.99, 8.85, repro,
1996-11-07,-0.97, 0.91, -8.83, 2.43, 1.97, 8.70, repro,
1996-11-08,-0.03, 1.56, -12.79, 2.37, 1.95, 8.65, repro,
1996-11-09,-3.44, 4.04, -10.07, 2.37, 1.99, 8.78, repro,
1996-11-10,-2.21, 2.28, -1.85, 2.41, 1.95, 8.71, repro,
1996-11-11,-0.02, 1.88, -6.58, 2.50, 2.13, 9.32, repro,
1996-11-12,-2.04, 2.08, -18.33, 2.38, 2.30, 8.82, repro,
1996-11-13,0.54, 1.75, -16.27, 2.47, 2.14, 9.01, repro,
1996-11-14,-0.21, 0.65, -5.69, 2.36, 1.94, 8.74, repro,
1996-11-15,-4.03, 2.64, 7.89, 2.87, 2.48, 11.36, repro,
1996-11-16,2.25, 2.97, -6.39, 2.57, 2.15, 9.15, repro,
1996-11-17,-3.38, 0.24, -10.71, 2.64, 2.07, 9.40, repro,
1996-11-18,-1.66, 5.39, -14.29, 2.75, 2.19, 9.53, repro,
1996-11-19,1.08, -1.67, -16.69, 2.62, 2.07, 9.49, repro,
1996-11-20,1.36, 3.98, -3.89, 2.26, 1.85, 8.28, repro,
1996-11-21,4.04, 2.20, -5.36, 2.36, 1.93, 8.62, repro,
1996-11-22,1.38, 0.88, -2.69, 2.36, 1.88, 8.52, repro,
1996-11-23,3.43, 2.38, -7.77, 2.43, 2.03, 8.85, repro,
1996-11-24,2.08, 2.76, -0.97, 2.45, 2.01, 8.88, repro,
1996-11-25,1.57, 1.21, -9.63, 2.50, 1.97, 8.71, repro,
1996-11-26,1.45, 3.61, -13.58, 2.49, 2.03, 8.99, repro,
1996-11-27,2.72, 1.56, -21.77, 2.46, 1.91, 8.76, repro,
1996-11-28,0.39, 2.53, 2.52, 2.50, 2.10, 9.22, repro,
1996-11-29,-0.95, 4.73, -2.93, 2.67, 2.19, 9.52, repro,
1996-11-30,0.45, 3.85, -5.04, 2.60, 1.98, 9.38, repro,
1996-12-01,5.67, 4.57, -11.56, 2.54, 2.10, 9.12, repro,
1996-12-02,0.58, 2.61, -2.81, 2.79, 2.15, 9.75, repro,
1996-12-03,-2.52, 2.03, -2.67, 2.46, 1.98, 8.96, repro,
1996-12-04,0.19, 1.14, -13.77, 2.60, 2.05, 9.11, repro,
1996-12-05,-3.67, 1.58, 8.34, 3.09, 2.79, 10.80, repro,
1996-12-06,1.44, 1.94, 11.63, 2.78, 2.11, 9.72, repro,
1996-12-07,-0.37, 2.78, 7.90, 2.49, 2.00, 9.00, repro,
1996-12-08,-2.88, 1.07, 14.98, 2.58, 2.08, 9.18, repro,
1996-12-09,-7.58, -1.05, -13.17, 3.97, 3.17, 14.38, repro,
1996-12-10,-3.51, -0.33, 2.85, 2.81, 2.24, 9.83, repro,
1996-12-11,-3.31, -1.01, 0.88, 2.39, 1.94, 8.63, repro,
1996-12-12,-0.58, -0.82, -19.02, 2.48, 2.08, 8.94, repro,
1996-12-13,0.57, 2.46, -14.39, 2.37, 1.90, 8.45, repro,
1996-12-14,0.63, 3.15, -7.24, 2.37, 1.89, 8.51, repro,
1996-12-15,-0.15, 2.70, -12.42, 2.35, 1.88, 8.37, repro,
1996-12-16,1.33, 2.61, -9.80, 2.32, 1.89, 8.44, repro,
1996-12-17,0.56, 2.94, -10.09, 2.57, 1.95, 8.96, repro,
1996-12-18,-0.71, 1.69, -11.33, 2.27, 1.83, 8.13, repro,
1996-12-19,0.36, 2.15, -8.79, 2.35, 1.87, 8.33, repro,
1996-12-20,-0.60, 3.31, -15.81, 2.43, 1.87, 8.60, repro,
1996-12-21,-1.69, -1.29, -11.11, 2.47, 1.95, 8.63, repro,
1996-12-22,-1.00, -0.95, -13.51, 2.46, 2.01, 8.74, repro,
1996-12-23,-2.33, 3.74, -1.19, 2.91, 2.31, 10.62, repro,
1996-12-24,1.77, 3.73, -11.44, 2.39, 1.86, 8.54, repro,
1996-12-25,0.62, 4.64, -11.39, 2.39, 1.91, 8.65, repro,
1996-12-26,0.06, 1.71, -9.73, 2.34, 1.90, 8.44, repro,
1996-12-27,0.48, -0.07, -17.83, 2.55, 2.10, 9.16, repro,
1996-12-28,-1.39, 3.59, 8.85, 2.40, 1.88, 8.60, repro,
1996-12-29,-3.03, 4.36, 5.90, 2.42, 1.97, 8.73, repro,
1996-12-30,0.60, 0.47, -20.01, 2.50, 1.96, 8.84, repro,
1996-12-31,1.16, 1.72, -22.00, 2.45, 1.99, 8.94, repro,
1997-01-01,0.27, 1.28, -7.34, 2.60, 2.24, 9.58, repro,
1997-01-02,-2.17, -0.76, -6.54, 2.68, 2.31, 9.85, repro,
1997-01-03,-2.55, 6.46, -5.79, 2.43, 2.08, 8.94, repro,
1997-01-04,0.46, 3.86, -12.09, 2.32, 1.92, 8.52, repro,
1997-01-05,0.04, 5.06, -18.66, 2.47, 2.16, 9.24, repro,
1997-01-06,-0.54, 3.42, -21.16, 2.55, 2.05, 9.33, repro,
1997-01-07,1.65, 5.18, -20.44, 2.46, 2.01, 9.08, repro,
1997-01-08,0.26, 4.86, -15.22, 2.39, 2.00, 8.88, repro,
1997-01-09,-1.80, 4.85, -10.05, 2.46, 2.03, 9.18, repro,
1997-01-10,-1.12, 2.23, -18.57, 2.30, 1.88, 8.41, repro,
1997-01-11,-0.45, 2.92, -17.12, 2.29, 1.91, 8.37, repro,
1997-01-12,2.38, 2.90, -23.57, 2.52, 2.16, 9.20, repro,
1997-01-13,-1.33, 4.19, -21.98, 2.53, 2.10, 9.22, repro,
1997-01-14,-2.38, 5.04, -20.25, 2.63, 2.27, 10.28, repro,
1997-01-15,-0.43, 3.11, -13.28, 2.70, 2.17, 9.79, repro,
1997-01-16,-0.99, 2.78, -22.41, 3.25, 2.52, 11.41, repro,
1997-01-17,-0.47, 3.55, -23.41, 2.68, 2.24, 10.09, repro,
1997-01-18,-1.06, 3.69, -22.11, 2.52, 2.10, 9.19, repro,
1997-01-19,-1.48, 3.65, -18.28, 2.38, 1.96, 8.77, repro,
1997-01-20,-1.60, 3.68, -23.38, 2.43, 2.00, 8.90, repro,
1997-01-21,1.29, 5.48, -34.16, 5.34, 4.14, 17.90, repro,
1997-01-22,-2.13, 4.19, -7.01, 2.59, 2.20, 9.45, repro,
1997-01-23,-77.43, -46.19, 40.05, 129.58, 322.44, 896.74, repro,
1997-01-24,-1.33, 4.16, -20.60, 2.48, 2.14, 9.25, repro,
1997-01-25,0.01, 4.96, -27.55, 2.43, 2.09, 9.24, repro,
1997-01-26,0.04, 4.56, -16.44, 2.46, 2.05, 9.05, repro,
1997-01-27,0.72, 6.12, -25.71, 2.78, 2.18, 10.36, repro,
1997-01-28,-1.14, 5.55, -17.29, 2.26, 1.87, 8.28, repro,
1997-01-29,-1.79, 4.38, -23.09, 2.36, 2.01, 9.01, repro,
1997-01-30,1.29, 4.26, -31.05, 2.43, 2.27, 9.01, repro,
1997-01-31,-0.41, 3.94, -22.19, 2.34, 1.93, 8.55, repro,
1997-02-01,-0.17, 4.88, -18.91, 2.44, 2.05, 9.16, repro,
1997-02-02,-0.58, 1.99, -15.28, 2.65, 2.20, 9.80, repro,
1997-02-03,-1.53, 3.96, -15.73, 2.71, 2.25, 9.78, repro,
1997-02-04,-1.35, 3.94, -29.41, 2.87, 2.25, 10.58, repro,
1997-02-05,0.47, 2.99, -29.95, 2.68, 2.19, 9.91, repro,
1997-02-06,-0.86, 2.82, -32.73, 2.63, 2.16, 9.72, repro,
1997-02-07,-1.05, 3.22, -27.99, 2.69, 2.25, 10.13, repro,
1997-02-08,-2.19, 1.54, -19.85, 2.56, 2.15, 9.65, repro,
1997-02-09,-0.10, 3.95, -12.47, 2.64, 2.18, 9.68, repro,
1997-02-10,1.58, 1.98, -20.77, 3.17, 2.60, 12.34, repro,
1997-02-13,0.26, 1.95, 0.07, 4.97, 4.01, 17.55, repro,
1997-02-14,0.41, 2.74, -15.54, 2.54, 2.12, 11.46, repro,
1997-02-15,-1.03, 3.65, -29.22, 2.76, 2.25, 11.97, repro,
1997-02-16,-0.24, 4.49, -18.07, 2.59, 2.15, 11.04, repro,
1997-02-17,-1.49, 0.74, -9.47, 2.68, 2.29, 11.77, repro,
1997-02-18,-0.33, 2.35, -18.30, 2.85, 2.27, 12.45, repro,
1997-02-19,-1.84, 3.40, -6.60, 2.63, 2.13, 11.16, repro,
1997-02-20,-0.38, 2.72, -7.49, 2.68, 2.21, 11.45, repro,
1997-02-21,0.55, 3.12, -12.47, 2.74, 2.28, 11.74, repro,
1997-02-22,1.60, 1.01, -20.78, 2.82, 2.36, 12.16, repro,
1997-02-23,0.17, -0.71, -24.60, 2.81, 2.34, 12.21, repro,
1997-02-24,0.05, 0.49, -7.30, 2.44, 2.01, 9.01, repro,
1997-02-25,0.69, 1.16, -9.61, 2.39, 2.00, 8.68, repro,
1997-02-26,0.14, 3.72, -11.29, 2.43, 2.07, 8.74, repro,
1997-02-27,4.45, 5.11, 2.77, 3.14, 2.63, 11.63, repro,
1997-03-01,-2.27, 0.90, -39.83, 7.14, 6.07, 28.89, repro,
1997-03-02,-1.31, 2.42, 0.46, 2.55, 2.09, 9.69, repro,
1997-03-03,3.91, 6.65, 6.63, 3.01, 2.48, 11.49, repro,
1997-03-11,-0.09, 1.07, -15.80, 3.29, 2.68, 12.07, repro,
1997-03-12,1.55, 1.78, -9.15, 2.91, 2.33, 10.83, repro,
1997-03-13,-3.64, 0.68, -69.93, 7.81, 6.51, 36.37, repro,
1997-03-14,0.84, 2.43, -12.77, 2.52, 2.09, 9.50, repro,
1997-03-15,0.75, 3.02, 0.29, 2.42, 2.00, 9.17, repro,
1997-03-16,-1.06, 3.07, -0.46, 2.29, 1.90, 8.51, repro,
1997-03-17,1.90, -0.12, -8.18, 2.34, 1.93, 8.60, repro,
1997-03-18,0.80, 2.94, -14.34, 2.29, 1.90, 8.52, repro,
1997-03-19,0.72, 2.69, -12.70, 2.25, 1.85, 8.25, repro,
1997-03-20,2.00, 2.86, -16.88, 2.33, 1.90, 8.60, repro,
1997-03-21,-2.42, -3.95, 9.14, 6.22, 5.83, 23.66, repro,
1997-03-22,-5.37, -1.44, -2.72, 5.02, 4.73, 17.01, repro,
1997-03-23,0.58, 3.10, 4.85, 3.68, 3.11, 12.80, repro,
1997-03-24,0.04, 2.05, -16.39, 2.27, 1.89, 8.63, repro,
1997-03-25,1.16, 3.94, -6.65, 2.31, 1.94, 8.64, repro,
1997-03-26,2.00, 4.95, -7.57, 2.34, 1.95, 8.96, repro,
1997-03-27,1.14, 2.92, -8.44, 2.38, 1.93, 8.81, repro,
1997-03-28,0.33, 1.76, -2.62, 2.26, 1.86, 8.33, repro,
1997-03-29,1.81, 3.49, -7.70, 2.27, 1.85, 8.33, repro,
1997-03-30,1.06, 3.02, -12.39, 2.25, 1.85, 8.32, repro,
1997-03-31,1.03, 5.52, -11.86, 2.35, 2.00, 8.86, repro,
1997-04-01,0.24, 1.95, -11.89, 2.34, 1.96, 8.78, repro,
1997-04-02,1.65, 4.89, -18.17, 2.39, 1.93, 8.87, repro,